User: anonymous   Login
Location: Unspecified
(34.4480°N, 0.0000°E)
Time: 01:41:24
(UTC+00:00)
Language:

XW-2D - Orbit

View from above orbital plane
View from above orbital plane
View from above satellite
View from above satellite

Ground track
Ground track

The orbit data is extracted from the following two-line orbital elements,

1 40907U 15049J   20021.80351222  .00000572  00000-0  33070-4 0  9998
2 40907  97.4722  25.0677 0014423 156.7690 280.9636 15.16112120239905
Epoch (UTC): 21 January 2020 19:17:03
Eccentricity: 0.0014423
inclination: 97.4722°
perigee height: 507 km
apogee height: 527 km
right ascension of ascending node: 25.0677°
argument of perigee: 156.7690°
revolutions per day: 15.16112120
mean anomaly at epoch: 280.9636°
orbit number at epoch: 23990

The dashed part of the orbit path shows where the satellite is in the earth's shadow,  

DLR